Regional Weather Roundup
Issued by NWS Goodland, KS

Home | Current Version | Previous Version | Graphics & Text | Print | Product List | Glossary Off
Versions: 1 2 3 4 5 6 7 8 9 10 11 12 13 14 15 16 17 18 19 20 21 22 23 24 25 26 27 28 29 30 31 32 33 34 35 36 37 38 39 40 41 42 43 44 45 46 47 48 49 50

000
ASUS43 KGLD 301008
RWRGLD

GOODLAND FORECAST AREA HOURLY WEATHER ROUNDUP
NATIONAL WEATHER SERVICE GOODLAND KS
400 AM MDT TUE SEP 30 2014

...OFFICIAL OBSERVATIONS...

CITY           SKY/WX    TMP DP  RH WIND       PRES   REMARKS
GOODLAND KS    PTCLDY    49  46  90 W7        29.87S
HILL CITY KS   CLOUDY    66  58  75 S10       29.82S
IMPERIAL NEB   CLEAR     51  47  86 S8        29.80S
MCCOOK NEB     CLEAR     55  50  83 SW12      29.81R
AKRON CO       MOCLDY    47  45  93 SW12      29.83S
BURLINGTON CO  MOCLDY    48  44  86 CALM      29.86S
LIMON CO       PTCLDY    41  40  96 CALM      29.89R
$$

...UNOFFICIAL OBSERVATIONS...

CITY           SKY/WX    TMP DP  RH WIND       PRES   REMARKS
COLBY KS       CLEAR     52  52 100 SW7       29.85F
GOVE KS          N/A     62  32  32 MISG        N/A
NORTON KS      CLOUDY    63  54  72 SW13      29.81R
SHARON SPRINGS   N/A     49  47  92 CALM        N/A
WAKEENEY KS      N/A     63  54  73 MISG        N/A
KIT CARSON CO    N/A     48  44  87 MISG        N/A
$$


USA.gov is the U.S. government's official web portal to all federal, state and local government web resources and services.